星链-2735 (STARLINK-2735 )

导读

STARLINK-2735是美国SpaceX公司星链(Starlink)星座的成员卫星,于2021年5月26日发射升空,属于星链低轨互联网通信卫星。星链星座旨在构建全球覆盖的宽带互联网,该卫星部署于近地轨道,搭载相控阵通信天线与霍尔推进系统,具备自主避撞能力,服役期满后会受控离轨坠入大气层焚毁,助力全球网络覆盖。

Basic Information
目录编号:
48667
目录名称:
STARLINK-2735
国际标识:
2021-044AF
轨道中心:
EARTH
卫星名称:
星链-2735
卫星全名:
星链-2735 (STARLINK-2735 )
卫星状态:
在轨 (已飞行1927 天)
发射日期:
2021-05-26 UTC
国别 :
美国 (US)
星等 :
--
Orbit Information
数据来源 国际轨道数据
星历时间: 2026-09-04T01:11:04+0800
22小时前
查看轨道信息
半长轴: 6848.858km
偏心率: 0.0000582
轨道倾角: 53.161°
近地点辐角 115.032°
升交点赤经 6.942°
平近点角 245.074°
近地点: 470.322km
远地点: 471.12km
周期: 94.013分钟
每日圈数: 15.317067
Detailed Information
固有亮度:
5
最大亮度:
2.5
卫星平台:
Starlink V1.0
覆盖范围:
全球
运营商:
太空探索技术公司
运营商所在国:
美国
制造商(研发单位):
太空探索技术公司
制造商所在国:
美国
使用方式:
暂无
Satellite Introduction
星链(Starlink)计划是由太空探索技术公司(SpaceX)提出的一个巨型低轨卫星互联网星座项目,计划在2019年至2024年间在太空搭建由约1.2万颗卫星组成的“星链”网络,其中1584颗将部署在地球上空550千米处的近地轨道,并从2020年开始工作。该卫星仍在工作。
2D Orbit Map
3D Orbit Map
Orbit Altitude Analysis Chart
Orbit Inclination Analysis Chart
Orbit Comprehensive Analysis Chart
View Comprehensive Chart
Conjunction Data List
Event ID Objects TCA Miss Dist (km) Collision Risk Probability Collision Risk Index (CRI) Action
CDM_260904-130904-866706-948621
2026-09-04T
13:09:52+0000
2.196 km
极远距离
1.954357E-6 低风险 0.41
CDM_260905-052704-649604-866721
ICEYE-X7 (46496)
2026-09-05T
05:27:47+0000
2.707 km
极远距离
1.495038E-6 低风险 0.38
CDM_260905-220504-866706-539621
2026-09-05T
22:05:15+0000
2.848 km
极远距离
1.32703E-6 低风险 0.37
CDM_260905-220204-866706-969121
2026-09-05T
22:02:04+0000
2.844 km
极远距离
1.259007E-6 低风险 0.37
CDM_260904-192804-866706-972221
2026-09-04T
19:28:22+0000
2.890 km
极远距离
1.13666E-6 低风险 0.36
CDM_260906-135004-704104-866721
2026-09-06T
13:50:45+0000
2.660 km
极远距离
1.114116E-6 低风险 0.36
CDM_260905-005804-866706-965721
2026-09-05T
00:58:34+0000
2.909 km
极远距离
1.08827E-6 低风险 0.36